1491754391.84618, 0.14845810661944808, -0.057663358824168232, 0.87378549712804932, -0.97365417022617451, -0.037093982444961066, 0.061324769653462861, 0.21647370716671938
1491754391.9093931, 0.13243034572965601, -0.060823449237716376, 0.86653531925000682, -0.97434948708778213, -0.036227115720596371, 0.055028835609156668, 0.21518015789064443
1491754392.0099351, 0.13389342500736245, -0.054575218009203064, 0.85217081090746039, -0.97579673188141713, -0.031681856933162889, 0.060327624951093027, 0.20779214532453499
1491754392.0434141, 0.13667901290973689, -0.066714740751788904, 0.83909532359547667, -0.97422372697566562, -0.033191962821068559, 0.061635338826114071, 0.21444698274752841
1491754392.0769248, 0.12166342870648461, -0.056378127602087269, 0.83681345575633848, -0.97622011355043414, -0.031710189215628022, 0.05317055579005478, 0.20775381054619207
1491754392.1075799, 0.12734168634439574, -0.057667511943616523, 0.83094069665160719, -0.97600382606793346, -0.02827308505369857, 0.056168365417441114, 0.20847608709066451
1491754392.1410391, 0.12655239243525765, -0.050812746198889092, 0.82868404620381286, -0.97677062158297567, -0.02382454668503128, 0.056051994967569317, 0.20545003686496532
1491754392.174391, 0.11776076218366942, -0.048377232847595764, 0.82368483199392195, -0.97729861343401692, -0.018001443967968614, 0.051666149849991884, 0.20468018261349677
1491754392.2076929, 0.1082052545715194, -0.055506018341190011, 0.81197035549438135, -0.97664328738120021, -0.01517935022043629, 0.047398755500246269, 0.20902352622888096
1491754392.241209, 0.095948737138677742, -0.0476380405919824, 0.81149612854897102, -0.97824531699424699, -0.011520913856073008, 0.043786245096595233, 0.20245032245735575
1491754392.274611, 0.10299254724453859, -0.050300791447424657, 0.80759754184973975, -0.97795474765948331, -0.0094181314895737129, 0.050993817863393034, 0.2022756556514809
1491754392.3081269, 0.089073735063074921, -0.053232488044011109, 0.80052254724278837, -0.97835125279069779, -0.0074771652406143314, 0.044161295950836094, 0.20204627713169881
1491754392.3416429, 0.096818576102623871, -0.039734353730847827, 0.80032274896191991, -0.98000957717686399, -0.0026045880451271235, 0.049362133968426043, 0.19271176532018636
1491754392.375273, 0.080388949848470559, -0.040076434486604286, 0.79257049290145298, -0.98045372879282111, 0.0035194455583302227, 0.039255320791772019, 0.19276181932309672
1491754392.4089348, 0.073413673209285046, -0.039269963452725071, 0.78663780538678874, -0.98030792096910113, 0.0076488776814266626, 0.036458503559182585, 0.19392950336057266
1491754392.4424508, 0.056744935990581898, -0.029899262929227344, 0.78189093437722423, -0.98091798887513826, 0.0093474463292344215, 0.03007948512030488, 0.19185345689659516
1491754392.5094829, 0.054806621824697088, -0.012149917420224088, 0.78055778337854176, -0.98119654624279684, 0.0045239156668665731, 0.03156395072867843, 0.1903591049638646
1491754392.5429988, 0.060597490891141699, -0.0091309147701864046, 0.78053894303164539, -0.98052564516392349, 0.004810280572055607, 0.035120532466364159, 0.193165391765629
1491754392.576633, 0.04633538291199088, -0.015697463806427558, 0.77038360193058741, -0.97912570019905643, 0.0005228684424261503, 0.02589840792004507, 0.20159826954988089
1491754392.6100349, 0.044292904180396386, -0.020905732383082416, 0.76931890863933217, -0.97791507249646625, 0.00033727249760934729, 0.025339788634275842, 0.20746058021576941
1491754392.64358, 0.041582408570570301, -0.026497621440981278, 0.76430943579834776, -0.97691288256715092, -0.00045867685405002871, 0.025164862051127113, 0.21215027505952316
1491754392.677181, 0.033862423315542234, -0.022281457352310963, 0.76303066834282585, -0.97767183341194752, -0.0022692316271705369, 0.022661339600077855, 0.20889973774103562
1491754392.710742, 0.027789248361480778, -0.012635981648526348, 0.76250967103324763, -0.97873381023787642, -0.00096127823653618168, 0.020704801358907687, 0.20408458011836289
1491754392.7442131, 0.02580139803465914, -0.021424233492290445, 0.7559406785822077, -0.97763193433822426, -0.0037405012241438374, 0.021695140228803853, 0.20916770903546891
1491754392.7778528, 0.028333266488341724, -0.018879597421136485, 0.75772383141048327, -0.97821018107657254, -0.0085155299537091264, 0.025976084947502254, 0.20580954885171579
1491754392.8113689, 0.020220552964686278, -0.008504936180443623, 0.75554346320828192, -0.97940954756596355, -0.012231851869595151, 0.022135428341019604, 0.20029314204094589
1491754392.8448141, 0.018613440142195542, -0.0078161698305355687, 0.75143332953044861, -0.97902981256671784, -0.015562741905491151, 0.02161215131519368, 0.20196866609820796
1491754392.87833, 0.0063272939872973111, 0.00084743308924217775, 0.74992921338689267, -0.97985065997458343, -0.01993950460652643, 0.015086510185562518, 0.19816028238231931
1491754392.9118459, 0.0162166800494698, -0.0018132360534685588, 0.75315880231147336, -0.97895060285483582, -0.02087051212228096, 0.022144214791039146, 0.20181618529046549
1491754392.9453661, 0.01536864263999993, -0.0077181768607745907, 0.7488701007915044, -0.97785147151178642, -0.02429819050905525, 0.021691807283020819, 0.20675000144381106
1491754392.9788969, 0.020799640753944804, -0.0090029216476459339, 0.74946547580189304, -0.97760287284976455, -0.024248786234610065, 0.025627527030375474, 0.20747975616995196
1491754393.0124128, 0.014263735413674983, -0.012345627820110339, 0.74332905722071885, -0.97720369267287321, -0.02503646558449682, 0.022336651374926256, 0.20963585672039078
1491754393.0459142, 0.0065018973541799557, -0.0032546323215474626, 0.74167482978088661, -0.97854722643597414, -0.024622910988112662, 0.017997062439996027, 0.20375265306853038
1491754393.0794449, 0.014321765897089153, -0.0052168840123098525, 0.74501741098349494, -0.97839933721942474, -0.024976605970079228, 0.02289637546467288, 0.20392808063968668
1491754393.1130128, 0.012558282341834592, -0.0066793678418439195, 0.73891810514317746, -0.97819101908526818, -0.027680888175339813, 0.020631465224664879, 0.20481806866932495
1491754393.1465287, 0.011600272166809616, 0.0080478024337857779, 0.74116809738124767, -0.97989174584037253, -0.028153962880222386, 0.019868293584683616, 0.19653185929532796
1491754393.1799929, 0.01304704390874107, 0.0045346397515920178, 0.73656042064178628, -0.97912086942031618, -0.031251463753217038, 0.018852864753545258, 0.19997559493465694
1491754393.2135088, 0.004662576984393603, 0.0065918575084517594, 0.73166902369337949, -0.97909842750017051, -0.034171103790874374, 0.012469755610613744, 0.20010774629538497
1491754393.2470961, 0.0053023952508160499, 0.010334010487426326, 0.73096939166823849, -0.97919682317939316, -0.037239510722562465, 0.011783666070571895, 0.19911791865742673
1491754393.2805409, 0.017695831302487017, 0.0030142545856679248, 0.72900511048443095, -0.97784276344056853, -0.038677833355396617, 0.016887486814095069, 0.20504235655822031
1491754393.3140421, 0.010050951663369057, -0.00092491421335388901, 0.72249594894064162, -0.97760354521525705, -0.036445762981126631, 0.0094362522105429451, 0.20706030978317275
1491754393.3475728, 0.0099377810358574625, -0.0033424222095908007, 0.71557630610779666, -0.97752130917426161, -0.037041004987659325, 0.0095036619986719559, 0.20733965966104251
1491754393.3811603, 0.012227069068320551, 0.0054862675041600362, 0.71778308228124654, -0.97898450074352428, -0.035912533587489748, 0.012902110724570277, 0.20033265528647851
1491754393.4146762, 0.00014452837682449315, 0.015156965537157785, 0.71149591199040763, -0.9800666641435648, -0.036511760907657384, 0.0062193941403386891, 0.19518592235725943
1491754393.4481921, -0.00050243859240828304, 0.015457596327468626, 0.70929727023441369, -0.97972696354770428, -0.038061486367173283, 0.0082326548540732018, 0.19651621700808958
1491754393.481708, -0.00045015632534173289, 0.021217407272777315, 0.70676641661369999, -0.97991287157667251, -0.039904959774803267, 0.009905150914504916, 0.19514160573566058
1491754393.5151322, -0.00057816772748126022, 0.025669216069268481, 0.70405660053011176, -0.97988780355990523, -0.040865006269455592, 0.011126818724805683, 0.19500291690692018
1491754393.5486901, 0.0037281196574622533, 0.025201736924582857, 0.70247173619559999, -0.97937950550767117, -0.042782905450094291, 0.014955565409081118, 0.19688000979300166
1491754393.582164, 0.0080692428326065158, 0.030255528896573625, 0.7014732897553283, -0.97966277473585983, -0.043821169363254295, 0.018545994764763346, 0.19492716329608537
1491754393.6156802, 0.0038367825481229606, 0.039526935544157316, 0.698550945924023, -0.98063612271744982, -0.043841794546118071, 0.015719688476845538, 0.19021982879514285
1491754393.6492381, -0.0041170392393688471, 0.044530728553397042, 0.69113377907199414, -0.98078623109170349, -0.041811049850916986, 0.01083153494053838, 0.19024427156192508
1491754393.682754, -0.0010785742482807281, 0.042093866129727375, 0.68823769739833585, -0.9800452803278078, -0.04278348756885314, 0.013436466642679125, 0.19364989817398462
1491754393.71627, 0.0093706907497578262, 0.05071210172435367, 0.6925788875508746, -0.9810554252385385, -0.041280152710164025, 0.020968819428041546, 0.18811302510472266
1491754393.7497211, 0.011140585962554038, 0.042928675171098163, 0.68756101603864195, -0.97993147651903723, -0.039496168036172445, 0.021729252039295908, 0.19417052722668968
1491754393.783237, 0.015722343680688589, 0.048914908487352443, 0.68893115466521704, -0.98092799751269677, -0.038012809382319691, 0.02551065766769043, 0.18890340485008736
1491754393.8167529, 0.020308677132282793, 0.054379872784435443, 0.68811863291077213, -0.98191526246049232, -0.03301827599130646, 0.028108396404336558, 0.18428816795790517
1491754393.8502121, 0.020490954863227384, 0.047535940665602072, 0.68098618421059054, -0.98119324406107433, -0.03040268282564372, 0.026619683654516321, 0.18875085993987306
1491754393.883707, 0.013053871375519568, 0.059213326787574821, 0.67767025774517764, -0.98295181604957738, -0.027102613094636525, 0.020718324324014534, 0.18067076887389752
1491754393.917223, 0.023342988408224769, 0.072850439570297465, 0.68277353142404651, -0.98439679553381931, -0.026397463913395241, 0.027775611738419571, 0.17174003096030241
1491754393.9507389, 0.011545361808567633, 0.090456804695125792, 0.68208228821461381, -0.98605222967846451, -0.026717889305839675, 0.019814510476469881, 0.16307832446940182
1491754394.2521069, 0.036833574141507619, 0.14407911505233806, 0.68916212541785071, -0.98198520495066377, -0.05129946499299462, 0.026056961976820493, 0.17998460179130313
1491754394.3528948, 0.040767923564202724, 0.17773601325837182, 0.69987790646914494, -0.98375955814766791, -0.049301839013968944, 0.025846366454979352, 0.17064121941670701
1491754394.386416, 0.053986503763979898, 0.17800009037379819, 0.70388596033628548, -0.98318803030212809, -0.048962265452471954, 0.034458197617882158, 0.17250109057426363
1491754394.4199982, 0.039805542409808603, 0.19689968829640847, 0.70015167432109704, -0.98534296390245424, -0.049181118416672373, 0.022088236887381051, 0.16184119027744112
1491754394.4535201, 0.058586031484414026, 0.18887167035603419, 0.70821131715528052, -0.98389921225509747, -0.047782491412850368, 0.031907597980649106, 0.16923675377790903
1491754394.487036, 0.068465735164807973, 0.18773445694339125, 0.70764866157365791, -0.98345378490391244, -0.048378854874154428, 0.036359953223805981, 0.17075155390448796
1491754394.5540681, 0.062699627563654589, 0.19968165061256943, 0.71168290160397296, -0.9849505856742411, -0.04224145816634365, 0.024565595864308995, 0.16578460269814604
1491754394.587589, 0.065330925577597954, 0.21332763977200503, 0.7165370781813768, -0.98644940940079184, -0.042351919606414455, 0.024488502505075796, 0.15660201417459346
1491754394.6210999, 0.077476040561729409, 0.21057464168544476, 0.72119733015056986, -0.98590105007603568, -0.042227633424217231, 0.030155632719898139, 0.15908043327079108
1491754394.6881261, 0.072817090295765205, 0.21323463431693729, 0.72153835549894985, -0.98551886407015254, -0.043167443908197073, 0.019929640150387333, 0.16276347806490502
1491754395.1904237, 0.1822905728452113, 0.31564427762788511, 0.77331504977351107, -0.98582390316966839, -0.050603455156781926, 0.029252641310304413, 0.15727302769987778
1491754395.4920511, 0.2073393810153604, 0.35846101262525587, 0.77991708999841169, -0.98864336182892931, -0.061216254112224762, -0.0095776270999791413, 0.1369129007916858
1491754395.5255671, 0.23153117389136715, 0.25954891195329499, 0.76834588894021427, -0.97783326155397021, -0.060147357167587338, -0.0027248838985557142, 0.20054172391853831
1491754395.5590832, 0.2190035301989838, 0.29450207337233902, 0.77671313652715979, -0.9820003909053423, -0.059875965609524504, -0.01431235314777975, 0.17856443529285229
1491754395.592726, 0.21341379373382793, 0.28137906915805189, 0.7772098146388543, -0.98028149860088754, -0.059942317280107967, -0.021079871358180787, 0.1871115739964036
1491754395.6262529, 0.22170378557721238, 0.27912170078015996, 0.78107847845369727, -0.98019937931618395, -0.059237879807362642, -0.019426974745277329, 0.18794319098159046
1491754395.6597579, 0.23621029190279136, 0.27285505917986991, 0.77817548941818904, -0.97934204673617742, -0.057542606152018651, -0.015540633846259875, 0.19322653200708542
1491754395.693274, 0.22591147750917484, 0.3193426526986462, 0.78562225498718452, -0.98425821766038302, -0.058778985966392985, -0.024016056040873007, 0.16493641450271193
1491754395.8943207, 0.26937776945159625, 0.30358243183945188, 0.7896421468159921, -0.98084901111895573, -0.061838050312187698, -0.032302190878428935, 0.1818456526425847
1491754395.9278369, 0.27301964772932175, 0.29412865863476717, 0.79014231201762619, -0.97992694990153695, -0.059774184508002072, -0.033710991766123924, 0.18717315180660424
1491754395.9613528, 0.2787933962878173, 0.27897657130715797, 0.78750078966076464, -0.97907112462539347, -0.055552296385495449, -0.033506949129562605, 0.19290142469949309
1491754395.9948668, 0.28742884217394954, 0.20532960059451943, 0.7748493369772318, -0.96999034338643531, -0.054156719799333591, -0.030540129528762464, 0.23505974543934191
1491754396.0283849, 0.28016525829917166, 0.29330305281636532, 0.79303593289725149, -0.98217929962792216, -0.057292001039605883, -0.031362740876107791, 0.17623231396091948
1491754396.0619009, 0.29065606034115599, 0.26567274383054817, 0.78726874207867181, -0.97930332856505864, -0.059770101098442406, -0.024278052536199149, 0.19184134549446882
1491754396.0954149, 0.29338288203723911, 0.30041374904438273, 0.78977825869531371, -0.98349672972729729, -0.062740106635638906, -0.018149688484478288, 0.16872596256349082
1491754396.1287582, 0.28416759234644534, 0.28240089240842353, 0.79096275361731416, -0.98147232652154293, -0.066709691943808394, -0.021849405050760402, 0.17828205959119897
1491754396.162447, 0.30178361609543192, 0.28015784676817934, 0.78464337632675762, -0.98215808583405517, -0.059938762905988263, -0.009392533539167431, 0.17800174000778721
1491754396.1957901, 0.28226749688687885, 0.27454163022740957, 0.79198251412915521, -0.98211403733812919, -0.058361331011093441, -0.019156419377830136, 0.17798596658903851
1491754396.330009, 0.30443459355813546, 0.27033384986262537, 0.77159629757618342, -0.98395300635188432, -0.059729939493303338, 0.014653346396147049, 0.16749356721560876
1491754396.5644608, 0.32198098216486504, 0.24265858533781348, 0.75057173279099776, -0.98180869218904054, -0.052802952856789355, 0.067984534289951146, 0.16923842119633506
1491754396.5980501, 0.34303670288029048, 0.21938164843063085, 0.73734553300423733, -0.97818615186626623, -0.050247262194825816, 0.078962698237367068, 0.18545068677701038
1491754396.631566, 0.33388488993284154, 0.23534140319888605, 0.74443312595265143, -0.98041911458186148, -0.050941982328052374, 0.072755643637654938, 0.1757552005429078
1491754396.6650639, 0.35544025077213165, 0.30174739106818127, 0.73348137823117854, -0.98523719134974563, -0.048593533903742304, 0.095219039986361345, 0.13371491939228927
1491754396.6985981, 0.33463043799590608, 0.20571980748705218, 0.73555859220160191, -0.97592796118190861, -0.055019292705759532, 0.081371021755849079, 0.1947209511888493
1491754396.732096, 0.34443410637499433, 0.21194972693953837, 0.73225552861396792, -0.9765888177722144, -0.052817200532902078, 0.087877040139190857, 0.18910909588518207
1491754396.7656119, 0.33378103436529238, 0.21745888271215241, 0.73268079144127118, -0.97821740062559581, -0.053526522673007948, 0.081808950880589329, 0.1831199717115963
1491754396.7991459, 0.33360293747121172, 0.19197490665451378, 0.72733200719147895, -0.97549318752044678, -0.055551116975412609, 0.081703115766656134, 0.19660039516237715
1491754396.8327062, 0.3405559374706596, 0.19971659163467675, 0.72397793325756921, -0.97642949232756326, -0.053427436599642088, 0.087409280868454522, 0.18997519087867223
1491754396.8664999, 0.3250618098074417, 0.19391195949662282, 0.72342763690301704, -0.97684370868621961, -0.048867041878063705, 0.078561008745301947, 0.19291591153443099
1491754397.033802, 0.25044576899523063, 0.18905279550567999, 0.72902065462654719, -0.9777076618222128, -0.00086957203508832698, 0.081770783020871401, 0.19339211696129432
1491754397.0674911, 0.2672291101425246, 0.14878818260128546, 0.70627489872597526, -0.97060717731298396, 0.0051667843427384251, 0.097268752465053704, 0.22007680814199734
1491754397.1008339, 0.24627235031173181, 0.13842313528350481, 0.709243699292332, -0.97119416785015555, 0.0092565971584692118, 0.083804545856235799, 0.22287440821395257
1491754397.1345229, 0.28118853895207763, 0.1458628464119423, 0.69239425032485935, -0.97016286799161056, 0.013980423594722234, 0.10849294402529525, 0.21637430166988167
1491754397.1680582, 0.26841622091094419, 0.13352015839822579, 0.69321839474155866, -0.96993141159607843, 0.01522789917249092, 0.096905455279178904, 0.22273414786055154
1491754397.3356111, 0.23659571773021357, 0.10766430873937927, 0.67587638225443214, -0.97074991367703611, 0.057710885983753096, 0.040253132209452848, 0.22955117965788194
1491754397.369127, 0.23772544322694117, 0.11772028214557723, 0.67509475573740041, -0.97248382460855942, 0.059329658550301624, 0.042288868537996994, 0.22128455456445498
1491754397.4026511, 0.22734908400388121, 0.11678464385548665, 0.67475631100981537, -0.97257597696753151, 0.060180747713375039, 0.036940513557015421, 0.22160696083032838
1491754397.436167, 0.22872434869820479, 0.11780544894773121, 0.67524454235522546, -0.97250304744899196, 0.063287158902067708, 0.039973172472539287, 0.22053277240131119
1491754397.4696829, 0.21350745487153963, 0.11507563464985615, 0.67465274325318869, -0.97185873238368603, 0.068501462757427717, 0.03086529867990119, 0.22326102935144776
1491754397.5032051, 0.20361561218197943, 0.1119539308225338, 0.67532787624766555, -0.97112002120398999, 0.072966624505665448, 0.025125583003610667, 0.22576643063958762
1491754397.5367341, 0.19603020489573478, 0.11278385765261548, 0.6766761370018205, -0.97129067894780663, 0.071199677641729395, 0.021884389855056217, 0.22593383184794263
1491754397.6709831, 0.1640731728816161, 0.11400528848445696, 0.68271804951163917, -0.96973120769899435, 0.049941939406269814, 0.016257598068531803, 0.23845938439917255
1491754397.7043009, 0.15573353691394368, 0.10711959329247808, 0.68216993375756263, -0.96849892540021965, 0.045351571943317917, 0.011859956919373858, 0.24456575361804059
1491754397.737817, 0.15600006923875734, 0.1200047883278141, 0.68808989190703473, -0.97071714179165014, 0.044887464101118858, 0.013571186463754452, 0.23560383930739795
1491754397.771333, 0.1462942123220215, 0.115471933391268, 0.68779275552355268, -0.97036690433307415, 0.038517201722913723, 0.010172249509433228, 0.23832964877748833
1491754397.8048141, 0.14705794026513908, 0.10963135701452945, 0.68952109170067333, -0.97010505632601307, 0.033145601965454713, 0.011644072767114853, 0.24012905765534664
1491754397.83833, 0.14776287772772118, 0.090480770028388557, 0.68589833301732461, -0.96821949405764129, 0.025427274910630456, 0.011746125626143031, 0.24852865740223859
1491754397.8717501, 0.13417212904630346, 0.097228988523685, 0.68455070188792322, -0.970165806555088, 0.025497376447531479, 0.0030320828299479092, 0.2410788212583608
1491754398.238905, 0.11703780782657824, 0.049618099362925827, 0.68816038542474256, -0.98115889709295712, 0.0070391948849473284, -0.016642241051497305, 0.1923556710978068
1491754398.2724178, 0.097645416018063758, 0.055350542594115038, 0.68573817701391604, -0.98252207301380234, 0.0015487532518369677, -0.02904230602334467, 0.18386006054842868
1491754398.305934, 0.093961738446381782, 0.051151950962712189, 0.68017186394675333, -0.98295597101571441, -0.0057599965065644361, -0.031389979435154904, 0.18104985687886885
1491754398.3394499, 0.096716650188967412, 0.046081303067114415, 0.67833550111792096, -0.98296261111659922, -0.0058903802852740047, -0.02926072215119821, 0.18136598001312876
1491754398.440001, 0.084111005839074063, 0.041380702281554299, 0.67408817629110929, -0.98445641403644235, -0.010271651454067708, -0.031596414319185473, 0.17245790396814334
1491754398.47352, 0.08642144201616947, 0.048790764385943708, 0.67474418644725764, -0.98567122764787174, -0.0083786929489334822, -0.031214787963043701, 0.16555260645494865
1491754398.5070579, 0.086400594081404436, 0.038259351689633792, 0.67396090811585119, -0.98504552541267676, -0.011072523789318304, -0.031541955538862305, 0.16902016779716914
1491754398.675946, 0.065969130648072374, 0.28308231517614679, 0.59630228606724567, 0.99745482940274888, 0.015928819980579299, 0.04271582227389846, 0.054822390705114001
1491754398.743011, 0.04651162211833465, 0.23940384046479737, 0.62177453092140789, 0.99796338644931293, 0.014096432112232425, 0.054415401908111984, 0.030155164458235691
1491754398.8435791, 0.053825805442562602, 0.0031557881725062104, 0.65430907364670499, -0.98955939745008603, -0.0071923326055160471, -0.051071315862668075, 0.13458153649728483
1491754398.8771672, 0.04954334919118164, -0.0052203653826055074, 0.64542341062914099, -0.98884351016139849, -0.0059820414000668716, -0.055722288448503972, 0.13801360136752375
1491754398.910825, 0.042593595662784943, 0.0006684176384980367, 0.64772944233314467, -0.98958343009831273, -0.0056178823417551097, -0.060586199341801109, 0.13046986902027438
1491754398.9443612, 0.039833050937484168, -0.0035661350703697359, 0.64866104409082759, -0.98958908017456515, -0.0054841586903711641, -0.060678388617258744, 0.13038983686441977
1491754398.9778569, 0.031232835647733159, -0.010857800752130331, 0.64192143779879374, -0.98875777318752311, -0.0041327825772876333, -0.066448552248293172, 0.13388642938522693
1491754399.0113933, 0.025166794710713567, -0.010040669075676217, 0.64321414712398206, -0.98899040134075678, -3.1147460760065036e-05, -0.069215078668591529, 0.13079471690624664
1491754399.044889, 0.020799993619738222, -0.011540595106251827, 0.64158250054526855, -0.98892205981293269, 0.0027930307504840375, -0.071044568497340435, 0.13029976163293647
1491754399.0784049, 0.018526714429238256, -0.013487756681108187, 0.64249944744483667, -0.98890303426555748, 0.0069005729607215091, -0.072731432895175432, 0.12935729427520568
1491754399.1119211, 0.020065626843426942, -0.0082136162562586601, 0.64584126677676323, -0.98958090102135809, 0.009193459447478864, -0.073290409223578157, 0.12358655490378066
1491754399.1453569, 0.0018446118732503014, -0.0029457261994961237, 0.64291242838188589, -0.98836673905574479, 0.018066867730716384, -0.089827762945243875, 0.12139089925924133
1491754399.1788728, -0.00028040063594581, -0.0048774067357902282, 0.64286791997533432, -0.98754912919372895, 0.024161036644803791, -0.092821868793158471, 0.12468785991708187
1491754399.2124689, -0.0050092429704423902, -0.0059250704786476538, 0.64317541160832448, -0.98675475048418015, 0.026892575204357984, -0.096111738716499778, 0.12788426594648999
1491754399.2459049, -0.010525137757382896, -0.0064169449465318884, 0.64267801694114512, -0.98616052202569093, 0.029486266637828128, -0.097948909028140671, 0.13047603648937531